timestamp,wind_dir_avg,wind_spd_avg,wind_spd_max_dir,wind_spd_gust,battery_voltage,lat,long
2019-12-22 00:04:01+00:00,353.0,6.09,354.0,7.36,12.65,47.59359,-54.27349
2019-12-22 00:14:01+00:00,352.0,6.59,353.0,7.73,12.65,47.59359,-54.27349
2019-12-22 00:24:01+00:00,349.0,6.29,353.0,7.62,12.65,47.59359,-54.27349
2019-12-22 00:34:01+00:00,355.0,6.3,358.0,7.11,12.65,47.59359,-54.27349
2019-12-22 00:44:01+00:00,353.0,5.53,355.0,6.55,12.65,47.59359,-54.27349
2019-12-22 00:54:01+00:00,354.0,5.44,354.0,6.44,12.65,47.59359,-54.27349
2019-12-22 01:04:01+00:00,4.0,4.75,7.0,5.87,12.65,47.59359,-54.27349
2019-12-22 01:14:01+00:00,336.0,5.72,336.0,6.53,12.57,47.59359,-54.27349
2019-12-22 01:24:01+00:00,6.0,5.42,5.0,6.19,12.57,47.59359,-54.27349
2019-12-22 01:34:01+00:00,343.0,4.36,345.0,5.52,12.57,47.59359,-54.27349
2019-12-22 01:44:01+00:00,355.0,5.6,357.0,7.27,12.57,47.59359,-54.27349
2019-12-22 01:54:01+00:00,9.0,4.57,19.0,5.98,12.57,47.59359,-54.27349
2019-12-22 02:04:01+00:00,23.0,5.64,25.0,6.5,12.57,47.59359,-54.27349
2019-12-22 02:14:01+00:00,19.0,4.0,9.0,6.02,12.57,47.59359,-54.27349
2019-12-22 02:24:01+00:00,354.0,6.0,355.0,6.79,12.57,47.59359,-54.27349
2019-12-22 02:34:01+00:00,3.0,6.18,356.0,7.3,12.57,47.59359,-54.27349
2019-12-22 02:44:01+00:00,359.0,5.8,3.0,6.78,12.57,47.59359,-54.27349
2019-12-22 02:54:01+00:00,3.0,6.08,20.0,6.92,12.57,47.59359,-54.27349
2019-12-22 03:04:01+00:00,335.0,5.42,333.0,5.99,12.57,47.59359,-54.27349
2019-12-22 03:14:01+00:00,335.0,5.57,341.0,6.81,12.57,47.59359,-54.27349
2019-12-22 03:24:01+00:00,329.0,4.6,330.0,5.57,12.57,47.59359,-54.27349
2019-12-22 03:34:01+00:00,337.0,4.31,330.0,5.88,12.57,47.59359,-54.27349
2019-12-22 03:44:01+00:00,325.0,3.91,323.0,4.86,12.57,47.59359,-54.27349
2019-12-22 03:54:01+00:00,352.0,4.61,355.0,6.57,12.57,47.59359,-54.27349
2019-12-22 04:04:01+00:00,335.0,4.99,336.0,6.24,12.57,47.59359,-54.27349
2019-12-22 04:14:01+00:00,343.0,5.21,345.0,6.42,12.57,47.59359,-54.27349
2019-12-22 04:24:01+00:00,334.0,3.89,326.0,4.89,12.57,47.59359,-54.27349
2019-12-22 04:34:01+00:00,357.0,6.09,357.0,7.36,12.57,47.59359,-54.27349
2019-12-22 04:44:01+00:00,357.0,6.02,354.0,6.61,12.57,47.59359,-54.27349
2019-12-22 04:54:01+00:00,350.0,6.92,347.0,7.96,12.57,47.59359,-54.27349
2019-12-22 05:04:01+00:00,358.0,5.94,7.0,6.54,12.57,47.59359,-54.27349
2019-12-22 05:14:01+00:00,3.0,5.67,6.0,6.5,12.57,47.59359,-54.27349
2019-12-22 05:24:01+00:00,352.0,5.92,355.0,7.16,12.57,47.59359,-54.27349
2019-12-22 05:34:01+00:00,335.0,6.21,331.0,7.66,12.57,47.59359,-54.27349
2019-12-22 05:44:01+00:00,340.0,7.3,340.0,8.96,12.57,47.59359,-54.27349
2019-12-22 05:54:01+00:00,330.0,7.4,334.0,9.0,12.57,47.59359,-54.27349
2019-12-22 06:04:01+00:00,353.0,7.53,355.0,8.86,12.57,47.59359,-54.27349
2019-12-22 06:14:01+00:00,349.0,6.14,340.0,7.19,12.49,47.59359,-54.27349
2019-12-22 06:24:01+00:00,355.0,4.98,3.0,6.21,12.49,47.59359,-54.27349
2019-12-22 06:34:01+00:00,340.0,5.08,345.0,6.55,12.49,47.59359,-54.27349
2019-12-22 06:44:01+00:00,345.0,5.66,346.0,7.38,12.49,47.59359,-54.27349
2019-12-22 06:54:01+00:00,336.0,4.91,321.0,5.89,12.49,47.59359,-54.27349
2019-12-22 07:04:01+00:00,329.0,5.41,327.0,6.66,12.49,47.59359,-54.27349
2019-12-22 07:14:01+00:00,328.0,5.14,323.0,5.92,12.49,47.59359,-54.27349
2019-12-22 07:24:01+00:00,349.0,4.72,352.0,5.73,12.49,47.59359,-54.27349
2019-12-22 07:34:01+00:00,330.0,6.22,327.0,7.63,12.49,47.59359,-54.27349
2019-12-22 07:44:01+00:00,319.0,4.23,316.0,5.12,12.49,47.59359,-54.27349
2019-12-22 07:54:01+00:00,318.0,4.42,319.0,5.42,12.49,47.59359,-54.27349
2019-12-22 08:04:01+00:00,333.0,4.61,328.0,6.25,12.49,47.59359,-54.27349
2019-12-22 08:14:01+00:00,341.0,3.89,1.0,5.64,12.49,47.59359,-54.27349
2019-12-22 08:24:01+00:00,330.0,5.47,340.0,6.93,12.49,47.59359,-54.27349
2019-12-22 08:34:01+00:00,343.0,6.31,340.0,7.76,12.49,47.59359,-54.27349
2019-12-22 08:44:01+00:00,344.0,6.21,342.0,6.91,12.49,47.59359,-54.27349
2019-12-22 08:54:01+00:00,343.0,5.05,343.0,5.91,12.49,47.59359,-54.27349
2019-12-22 09:04:01+00:00,353.0,4.73,359.0,5.71,12.49,47.59359,-54.27349
2019-12-22 09:14:01+00:00,350.0,3.33,3.0,4.48,12.49,47.59359,-54.27349
2019-12-22 09:24:01+00:00,346.0,2.6,352.0,3.13,12.49,47.59359,-54.27349
2019-12-22 09:34:01+00:00,331.0,3.51,341.0,4.34,12.49,47.59359,-54.27349
2019-12-22 09:44:01+00:00,330.0,2.84,342.0,4.19,12.49,47.59359,-54.27349
2019-12-22 09:54:01+00:00,345.0,3.04,345.0,3.96,12.49,47.59359,-54.27349
2019-12-22 10:04:01+00:00,334.0,2.83,336.0,3.55,12.49,47.59359,-54.27349
2019-12-22 10:14:01+00:00,313.0,3.08,309.0,3.87,12.41,47.59359,-54.27349
2019-12-22 10:24:01+00:00,312.0,4.28,311.0,6.57,12.41,47.59359,-54.27349
2019-12-22 10:34:01+00:00,316.0,4.47,314.0,5.65,12.41,47.59359,-54.27349
2019-12-22 10:44:01+00:00,314.0,4.23,319.0,4.98,12.41,47.59359,-54.27349
2019-12-22 10:54:01+00:00,323.0,5.7,324.0,7.31,12.41,47.59359,-54.27349
2019-12-22 11:04:01+00:00,325.0,5.87,320.0,6.67,12.41,47.59359,-54.27349
2019-12-22 11:14:01+00:00,333.0,5.22,325.0,6.36,12.41,47.59359,-54.27349
2019-12-22 11:24:01+00:00,329.0,5.25,326.0,6.19,12.41,47.59359,-54.27349
2019-12-22 11:34:01+00:00,0.0,4.72,347.0,6.54,12.41,47.59359,-54.27349
2019-12-22 11:44:01+00:00,329.0,5.63,329.0,6.66,12.41,47.59359,-54.27349
2019-12-22 11:54:01+00:00,337.0,4.83,336.0,6.16,12.41,47.59359,-54.27349
2019-12-22 12:04:01+00:00,345.0,5.57,0.0,6.8,12.41,47.59359,-54.27349
2019-12-22 12:14:01+00:00,356.0,6.28,346.0,7.38,12.65,47.59359,-54.27349
2019-12-22 12:24:01+00:00,348.0,6.57,345.0,7.83,12.65,47.59359,-54.27349
2019-12-22 12:34:01+00:00,354.0,5.94,359.0,7.56,12.65,47.59359,-54.27349
2019-12-22 12:44:01+00:00,344.0,4.97,343.0,5.98,12.65,47.59359,-54.27349
2019-12-22 12:54:01+00:00,5.0,5.45,358.0,6.67,12.65,47.59359,-54.27349
2019-12-22 13:04:01+00:00,358.0,4.42,4.0,5.69,12.65,47.59359,-54.27349
2019-12-22 13:14:01+00:00,3.0,4.83,345.0,5.83,13.6,47.59359,-54.27349
2019-12-22 13:24:01+00:00,350.0,4.66,351.0,5.8,13.6,47.59359,-54.27349
2019-12-22 13:34:01+00:00,335.0,5.01,341.0,5.99,13.6,47.59359,-54.27349
2019-12-22 13:44:01+00:00,341.0,5.45,330.0,6.45,13.6,47.59359,-54.27349
2019-12-22 13:54:01+00:00,328.0,3.88,328.0,6.55,13.6,47.59359,-54.27349
2019-12-22 14:04:01+00:00,355.0,5.8,349.0,6.99,13.6,47.59359,-54.27349
2019-12-22 14:14:01+00:00,331.0,5.31,331.0,6.56,13.84,47.59359,-54.27349
2019-12-22 14:24:01+00:00,340.0,6.15,342.0,7.1,13.84,47.59359,-54.27349
2019-12-22 14:34:01+00:00,328.0,6.03,321.0,7.88,13.84,47.59359,-54.27349
2019-12-22 14:44:01+00:00,322.0,5.66,320.0,6.85,13.84,47.59359,-54.27349
2019-12-22 14:54:01+00:00,313.0,5.38,306.0,6.57,13.84,47.59359,-54.27349
2019-12-22 15:04:01+00:00,347.0,6.5,345.0,7.41,13.84,47.59359,-54.27349
2019-12-22 15:14:01+00:00,335.0,5.83,348.0,6.99,13.53,47.59359,-54.27349
2019-12-22 15:24:01+00:00,341.0,6.33,341.0,7.56,13.53,47.59359,-54.27349
2019-12-22 15:34:01+00:00,338.0,7.72,336.0,9.32,13.53,47.59359,-54.27349
2019-12-22 15:44:01+00:00,321.0,5.93,321.0,7.13,13.53,47.59359,-54.27349
2019-12-22 15:54:01+00:00,340.0,6.71,345.0,8.0,13.53,47.59359,-54.27349
2019-12-22 16:04:01+00:00,350.0,6.04,358.0,7.87,13.53,47.59359,-54.27349
2019-12-22 16:14:01+00:00,358.0,6.3,1.0,7.53,13.68,47.59359,-54.27349
2019-12-22 16:24:01+00:00,346.0,5.4,347.0,6.27,13.68,47.59359,-54.27349
2019-12-22 16:34:01+00:00,330.0,3.67,333.0,4.98,13.68,47.59359,-54.27349
2019-12-22 16:44:01+00:00,350.0,5.26,340.0,6.93,13.68,47.59359,-54.27349
2019-12-22 16:54:01+00:00,341.0,5.38,342.0,6.43,13.68,47.59359,-54.27349
2019-12-22 17:04:01+00:00,12.0,4.72,13.0,5.41,13.68,47.59359,-54.27349
2019-12-22 17:14:01+00:00,12.0,6.05,16.0,7.17,13.44,47.59359,-54.27349
2019-12-22 17:24:01+00:00,4.0,5.36,11.0,6.27,13.44,47.59359,-54.27349
2019-12-22 17:34:01+00:00,355.0,4.82,354.0,6.04,13.44,47.59359,-54.27349
2019-12-22 17:44:01+00:00,336.0,3.93,334.0,5.28,13.44,47.59359,-54.27349
2019-12-22 17:54:01+00:00,327.0,4.98,337.0,5.72,13.44,47.59359,-54.27349
2019-12-22 18:04:01+00:00,315.0,5.58,331.0,6.88,13.44,47.59359,-54.27349
2019-12-22 18:14:01+00:00,346.0,6.9,339.0,9.62,13.53,47.59359,-54.27349
2019-12-22 18:24:01+00:00,352.0,7.35,349.0,8.79,13.53,47.59359,-54.27349
2019-12-22 18:34:01+00:00,2.0,6.66,3.0,8.54,13.53,47.59359,-54.27349
2019-12-22 18:44:01+00:00,3.0,7.32,5.0,8.46,13.53,47.59359,-54.27349
2019-12-22 18:54:01+00:00,356.0,7.49,0.0,8.76,13.53,47.59359,-54.27349
2019-12-22 19:04:01+00:00,358.0,7.55,358.0,8.64,13.53,47.59359,-54.27349
2019-12-22 19:14:01+00:00,351.0,9.65,350.0,10.54,13.21,47.59359,-54.27349
2019-12-22 19:24:01+00:00,0.0,8.37,2.0,9.39,13.21,47.59359,-54.27349
2019-12-22 19:34:01+00:00,2.0,9.51,4.0,11.05,13.21,47.59359,-54.27349
2019-12-22 19:44:01+00:00,7.0,9.29,9.0,10.54,13.21,47.59359,-54.27349
2019-12-22 19:54:01+00:00,10.0,9.78,10.0,11.67,13.21,47.59359,-54.27349
2019-12-22 20:04:01+00:00,1.0,9.33,3.0,10.49,13.21,47.59359,-54.27349
2019-12-22 20:14:01+00:00,3.0,8.42,359.0,10.49,12.81,47.59359,-54.27349
2019-12-22 20:24:01+00:00,9.0,7.28,11.0,8.48,12.81,47.59359,-54.27349
2019-12-22 20:34:01+00:00,9.0,6.95,8.0,9.01,12.81,47.59359,-54.27349
2019-12-22 20:44:01+00:00,359.0,5.26,356.0,6.16,12.81,47.59359,-54.27349
2019-12-22 20:54:01+00:00,8.0,7.2,5.0,8.93,12.81,47.59359,-54.27349
2019-12-22 21:04:01+00:00,30.0,5.1,29.0,6.13,12.81,47.59359,-54.27349
2019-12-22 21:14:01+00:00,21.0,6.86,22.0,7.93,12.65,47.59359,-54.27349
2019-12-22 21:24:01+00:00,23.0,7.25,19.0,8.19,12.65,47.59359,-54.27349
2019-12-22 21:34:01+00:00,9.0,5.56,7.0,6.69,12.65,47.59359,-54.27349
2019-12-22 21:44:01+00:00,20.0,5.27,17.0,7.23,12.65,47.59359,-54.27349
2019-12-22 21:54:01+00:00,21.0,5.68,26.0,6.93,12.65,47.59359,-54.27349
2019-12-22 22:04:01+00:00,9.0,4.04,4.0,4.91,12.65,47.59359,-54.27349
2019-12-22 22:14:01+00:00,18.0,4.94,20.0,5.94,12.65,47.59359,-54.27349
2019-12-22 22:24:01+00:00,11.0,5.87,25.0,7.4,12.65,47.59359,-54.27349
2019-12-22 22:34:01+00:00,30.0,5.52,33.0,6.49,12.65,47.59359,-54.27349
2019-12-22 22:44:01+00:00,30.0,4.66,25.0,6.19,12.65,47.59359,-54.27349
2019-12-22 22:54:01+00:00,30.0,4.99,36.0,5.52,12.65,47.59359,-54.27349
2019-12-22 23:04:01+00:00,24.0,4.99,36.0,6.12,12.65,47.59359,-54.27349
2019-12-22 23:14:01+00:00,12.0,4.2,353.0,5.23,12.57,47.59359,-54.27349
2019-12-22 23:24:01+00:00,15.0,4.64,16.0,5.85,12.57,47.59359,-54.27349
2019-12-22 23:34:01+00:00,20.0,3.72,355.0,4.74,12.57,47.59359,-54.27349
2019-12-22 23:44:01+00:00,26.0,3.31,27.0,4.05,12.57,47.59359,-54.27349
2019-12-22 23:54:01+00:00,29.0,3.44,32.0,4.14,12.57,47.59359,-54.27349
